Regional Weather Roundup
Issued by NWS

Home | Current Version | Previous Version | Graphics & Text | Print | Product List | Glossary On
Versions: 1 2 3 4 5 6 7 8 9 10 11 12 13 14 15 16 17 18 19 20 21 22 23 24 25 26 27 28 29 30 31 32 33 34 35 36 37 38 39 40 41 42 43 44 45 46 47 48 49 50
000
ASUS45 KTFX 231819
RWRMT
MONTANA HOURLY WEATHER ROUNDUP
NATIONAL WEATHER SERVICE GREAT FALLS MT
1219 PM MDT WED JUL 23 2014

NOTE: "FAIR" INDICATES FEW OR NO CLOUDS BELOW 12000 FEET WITH NO
SIGNIFICANT WEATHER AND/OR OBSTRUCTIONS TO VISIBILITY.

* THESE STATIONS ARE NOT UNDER NWS QUALITY CONTROL. THEY DO NOT
   REPORT WEATHER SUCH AS PRECIPITATION OR FOG.

MTZ001>007-043-231900-
WEST OF THE DIVIDE
CITY           SKY/WX    TMP DP  RH WIND       PRES   REMARKS
KALISPELL      SUNNY     73  55  53 VRB3      30.06F
MISSOULA       SUNNY     77  55  47 SE9       30.08F
BUTTE          PTSUNNY   72  48  43 NE3       30.23F
MULLAN PASS    SUNNY     63  54  73 VRB7      30.17F
* ESSEX        N/A       73  50  44 SE3        N/A
* LINCOLN      N/A       71  57  61 W3         N/A
* LOOKOUT PASS N/A       68  56  66 S6G11      N/A
* POLSON       N/A       78  55  45 SW2G7      N/A
* RONAN APT    SUNNY     75  55  50 N/A        N/A
* SEELEY LAKE  N/A       71  57  61 W5         N/A
* THOMP F APT  SUNNY     77  39  26 S4G10      N/A
* YAAK HILL    N/A       77  51  40 NW1        N/A
$$

MTZ008-052>055-231900-
SOUTHWEST MONTANA
CITY           SKY/WX    TMP DP  RH WIND       PRES   REMARKS
BOZEMAN        PTCLDY    75  50  42 VRB3      30.17F
DILLON         PTSUNNY   73  52  48 N5        30.21F
W YELLOWSTONE  PTCLDY    77  39  26 S16G28    30.30F
* THREE FORKS  PTCLDY    77  77 100 N/A        N/A
* BOULDER HILL N/A       72  46  40 S8         N/A
* MONIDA PASS  N/A       72  41  33 E8         N/A
* RAYNOLDS PAS N/A       71  14  11 N/A        N/A
* WHITEHALL    N/A       78  53  42 E5G11      N/A
* WISE RIVER   N/A       71  49  46 N3         N/A
$$

MTZ009>010-012-014-046-048-049-054-231900-
EAST SLOPES AND CENTRAL MONTANA
CITY           SKY/WX    TMP DP  RH WIND       PRES   REMARKS
CUT BANK       SUNNY     73  55  53 SE12      30.09F
GREAT FALLS    SUNNY     81  54  39 SE10      30.07F
HELENA         SUNNY     81  55  41 NE9       30.11F HI  81
MALMSTROM AFB  SUNNY     81  54  39 E14G21    30.08F
* CONRAD       PTCLDY    73  66  79 E5         N/A
* DEARBORN     N/A       79  57  47 SW7G12     N/A
* EAST GLACIER N/A       73  49  43 W14        N/A
* MONARCH      N/A       73  48  41 E14        N/A
* ROGERS PASS  N/A       71  53  53 SE6G12     N/A
* SAINT MARY   N/A       73  53  50 W2G7       N/A
* SWEET GRASS  N/A       71  58  64 SW3        N/A
* WHITE SULPH  N/A       76  56  50 SW4        N/A
$$

MTZ011-013-016-021-035-040-045-047-050-051-231900-
NORTH CENTRAL MONTANA
CITY           SKY/WX    TMP DP  RH WIND       PRES   REMARKS
HAVRE          PTSUNNY   81  61  51 E13       30.06F HI  82
LEWISTOWN      SUNNY     79  57  47 VRB5      30.13F
* FORT BENTON  SUNNY     82  55  40 E3        30.07F HI  81
* CHESTER      N/A       67  60  78 SE5G10     N/A
* DENTON       N/A       81  53  38 N8         N/A
* GEYSER       N/A       78  52  40 NE8        N/A
* JUDITH GAP   N/A       76  55  48 N1G8       N/A
* LOMA         N/A       79  57  47 NE2G7      N/A
$$

MTZ017>020-022>027-061-062-231900-
NORTHEAST MONTANA
CITY           SKY/WX    TMP DP  RH WIND       PRES   REMARKS
GLASGOW        PTCLDY    84  59  43 E17       30.11F HI  84
GLENDIVE       PTCLDY    84  61  46 E8        30.15F HI  84
JORDAN         PTSUNNY   84  59  43 E17       30.08F HI  84
SIDNEY         PTCLDY    84  63  49 SE13G20   30.15F HI  85
WOLF POINT     PTCLDY    88  61  40 E15       30.12F HI  88
* BEAVER HILL  N/A       77  65  67 SE12G18    N/A
* CIRCLE       N/A       82  64  55 E10G15     N/A   HI  84
* LINDSAY DVD  N/A       79  61  54 E13        N/A
* NAVAJO       N/A       80  63  56 SE10G16    N/A   HI  81
$$

MTZ028>042-056>058-231900-
SOUTHCENTRAL AND SOUTHEAST MONTANA
CITY           SKY/WX    TMP DP  RH WIND       PRES   REMARKS
BAKER          PTCLDY    82  64  55 S12G21    30.18F HI  84
BILLINGS       SUNNY     79  59  50 N7        30.11F
LIVINGSTON     SUNNY     79  52  39 VRB5      30.15F
MILES CITY     PTCLDY    88  63  43 E12       30.09F HI  89
* LAUREL APT   SUNNY     75  61  62 NE6        N/A
* ROUNDUP APT  PTCLDY    81  61  51 N/A        N/A   HI  82
* ALZADA       N/A       81  62  53 E6         N/A   HI  82
* HYSHAM       N/A       83  58  43 E5         N/A   HI  83
* LAME DEER    N/A       77  65  67 SE11G20    N/A
* REED POINT   N/A       77  54  45 W9G14      N/A
* ROSCOE HILL  N/A       72  52  49 N7         N/A
$$

REGIONAL REPORTS...DAKOTAS
CITY           SKY/WX    TMP DP  RH WIND       PRES   REMARKS
WILLISTON      SUNNY     84  63  49 SE14      30.18F HI  85
DICKINSON      PTCLDY    79  64  60 SE17G24   30.19F
CROSBY         N/A       75  72  90 E15G21    30.22F
TIOGA          PTSUNNY   77  68  74 E15G23    30.24F
WATFORD CITY   SUNNY     82  63  53 SE16G23   30.17F HI  83
BISMARCK       PTCLDY    77  63  62 SE17      30.25F
GRAND FORKS    PTSUNNY   72  57  59 N8        30.29F
FARGO          CLOUDY    75  57  54 N6        30.27F
BUFFALO SD     PTCLDY    79  63  58 E12       30.13F
RAPID CITY     SUNNY     79  63  58 SE16      30.23F
$$

REGIONAL REPORTS...WYOMING/IDAHO/WASHINGTON
CITY           SKY/WX    TMP DP  RH WIND       PRES   REMARKS
GILLETTE       SUNNY     82  63  53 SE17      30.21F HI  83
SHERIDAN       SUNNY     82  57  43 S6        30.13F HI  82
CODY           SUNNY    N/A N/A N/A S6        30.16F
YELLOWSTONE LA SUNNY     75  36  24 VRB7      30.42F
SALMON         PTSUNNY   73  50  44 N5        30.13F
MULLAN PASS    SUNNY     63  54  73 VRB7      30.17S
SAND POINT     SUNNY     73  55  53 N15G21    29.99F
SPOKANE        PTCLDY    77  54  45 VRB6      29.96F
$$

REGIONAL REPORTS...ALBERTA
CITY           SKY/WX    TMP DP  RH WIND       PRES   REMARKS
CALGARY        PTSUNNY   72  50  46 SE5       30.07F
LETHBRIDGE     PTCLDY    72  55  55 SE6       30.06F
MEDICINE HAT   PTSUNNY   72  61  68 S8        30.05R
EDMONTON       PTSUNNY   70  59  68 W5        29.99S
WATERTON GATE  N/A       75  54  48 NE5        N/A
CARDSTON       N/A       72  59  64 NW3        N/A
$$

REGIONAL REPORTS...SASKATCHEWAN
CITY           SKY/WX    TMP DP  RH WIND       PRES   REMARKS
SWIFT CURRENT  PTSUNNY   75  59  58 SE17G23   30.14F
MOOSE JAW      PTSUNNY   77  59  54 SE14G21   30.20F
REGINA         PTSUNNY   77  59  54 SE17G25   30.23F
VAL MARIE      N/A       82  50  33 E14        N/A
ASSINIBOIA     N/A       77  57  50 E13        N/A
CORONACH       N/A       81  57  44 E12        N/A   HI  81

$$



USA.gov is the U.S. government's official web portal to all federal, state and local government web resources and services.